Logan, UT

7:52 PM MST on December 14, 2019 (GMT -0700)
Logan-Cache

Weather History for KLGU - October, 2019

Change the Weather History Date:

Thursday, October 3, 2019

  Actual Average Record
Temperature  
Mean Temperature 47 °F -  
Max Temperature 66 °F 70 °F 86 °F (1992)
Min Temperature 28 °F 38 °F 26 °F (1999)
Degree Days  
Heating Degree Days 18    
Moisture  
Dew Point 31 °F    
Average Humidity 62    
Maximum Humidity 96    
Minimum Humidity 27    
Precipitation  
Precipitation 0.00 in - - ()
Sea Level Pressure  
Sea Level Pressure 30.04 in    
Wind  
Wind Speed 3 mph ()    
Max Wind Speed 8 mph    
Max Gust Speed -    
Visibility 10.0 miles    
Events      
Averages and records for this station are not official NWS values.
T = Trace of Precipitation, MM = Missing Value Source: Averaged Metar Reports

Daily Weather History Graph

Daily Weather History Graph

Search for Another Location

Airport or City:

Astronomy

Oct. 03, 2019 Rise Set
Actual Time 7:26 AM MDT 7:05 PM MDT
Civil Twilight 6:58 AM MDT 7:33 PM MDT
Nautical Twilight 6:26 AM MDT 8:05 PM MDT
Astronomical Twilight 5:53 AM MDT 8:38 PM MDT
Moon 1:05 PM MDT (10/3) 10:43 PM MDT (10/3)
Length of Visible Light 12h 35m
Length of Day
11h 39m
Waxing Crescent, 30% of the Moon is Illuminated
Oct 3
Waxing Crescent
Oct 5
First Quarter
Oct 13
Full
Oct 21
Last Quarter
Oct 27
New

Hourly Weather History & Observations

Time (MDT) Temp. Windchill Dew Point Humidity Pressure Visibility Wind Dir Wind Speed Gust Speed Precip Events Conditions
12:51 AM 34.0 °F 28.0 °F 28.9 °F 82% 30.16 in 10.0 mi East 6.9 mph - N/A   Clear
1:51 AM 33.1 °F 28.7 °F 28.9 °F 85% 30.17 in 10.0 mi North 4.6 mph - N/A   Clear
2:51 AM 36.0 °F 32.1 °F 28.9 °F 76% 30.16 in 10.0 mi South 4.6 mph - N/A   Clear
3:51 AM 28.0 °F 22.8 °F 27.0 °F 96% 30.17 in 10.0 mi NW 4.6 mph - N/A   Clear
4:51 AM 30.9 °F 27.5 °F 27.0 °F 85% 30.16 in 10.0 mi NNW 3.5 mph - N/A   Clear
5:51 AM 30.0 °F - 27.0 °F 88% 30.15 in 10.0 mi Calm Calm - N/A   Clear
6:51 AM 28.0 °F - 26.1 °F 92% 30.16 in 10.0 mi Calm Calm - N/A   Clear
7:51 AM 28.9 °F - 26.1 °F 89% 30.17 in 10.0 mi Calm Calm - N/A   Clear
8:51 AM 35.1 °F - 30.0 °F 82% 30.17 in 10.0 mi Calm Calm - N/A   Clear
9:51 AM 39.0 °F - 30.9 °F 73% 30.15 in 10.0 mi Calm Calm - N/A   Clear
10:51 AM 45.0 °F - 30.9 °F 58% 30.13 in 10.0 mi Calm Calm - N/A   Clear
11:51 AM 50.0 °F - 30.9 °F 48% 30.08 in 10.0 mi NNW 3.5 mph - N/A   Clear
12:51 PM 54.0 °F - 30.9 °F 41% 30.05 in 10.0 mi NNW 4.6 mph - N/A   Clear
1:51 PM 57.9 °F - 32.0 °F 37% 30.00 in 10.0 mi Calm Calm - N/A   Clear
2:51 PM 60.1 °F - 32.0 °F 35% 29.94 in 10.0 mi Calm Calm - N/A   Clear
3:51 PM 64.0 °F - 33.1 °F 31% 29.92 in 10.0 mi Variable 3.5 mph - N/A   Clear
4:51 PM 66.0 °F - 30.9 °F 27% 29.89 in 10.0 mi Variable 3.5 mph - N/A   Clear
5:51 PM 64.0 °F - 35.1 °F 34% 29.89 in 10.0 mi NNW 8.1 mph - N/A   Clear
6:51 PM 57.9 °F - 34.0 °F 41% 29.92 in 10.0 mi NE 8.1 mph - N/A   Clear
7:51 PM 55.9 °F - 33.1 °F 42% 29.92 in 10.0 mi Variable 3.5 mph - N/A   Clear
8:51 PM 51.1 °F - 36.0 °F 56% 29.91 in 10.0 mi Calm Calm - N/A   Clear
9:51 PM 48.9 °F - 36.0 °F 61% 29.89 in 10.0 mi South 3.5 mph - N/A   Clear
10:51 PM 41.0 °F 39.0 °F 34.0 °F 76% 29.90 in 10.0 mi North 3.5 mph - N/A   Clear
11:51 PM 46.9 °F - 35.1 °F 63% 29.86 in 10.0 mi Calm Calm - N/A   Clear